Sandy Bay Yacht Club
Weather Center


NOAA NWS Hourly Roundups by Site

NOAA NWS Hourly Roundups by Site

Regional Weather Roundup for Boston, MA

To Select Another Site Choose from List
Select Site:  

000
ASUS41 KBOX 170704
RWRBOX

REGIONAL WEATHER ROUNDUP
NATIONAL WEATHER SERVICE BOSTON/NORTON MA
300 AM EDT FRI SEP 17 2021

NOTE:  "FAIR" INDICATES FEW OR NO CLOUDS BELOW 12,000 FEET WITH NO
SIGNIFICANT WEATHER AND/OR OBSTRUCTIONS TO VISIBILITY.

MAZALL-170800-
EASTERN MASSACHUSETTS

CITY           SKY/WX    TMP DP  RH WIND       PRES   REMARKS
BOSTON         CLOUDY    66  61  84 NE6       30.31S
BEVERLY        PTCLDY    63  31  30 CALM      30.31R
LAWRENCE       MOCLDY    61  59  93 NE5       30.33S
BEDFORD        CLEAR     62  61  96 N3        30.30S
BLUE HILL      NOT AVBL
NORWOOD        CLOUDY    65  61  87 CALM      30.30F
MARSHFIELD     CLOUDY    66  63  88 E8        30.30F
PLYMOUTH       CLOUDY    65  63  93 NE8       30.29F
TAUNTON        CLOUDY    65  63  93 CALM      30.29F
NEW BEDFORD    CLOUDY    66  64  93 NE9       30.28F
$$

MAZALL-170800-
CAPE COD AND THE ISLANDS

CITY           SKY/WX    TMP DP  RH WIND       PRES   REMARKS
FALMOUTH       CLOUDY    66  66 100 NE14      30.29S FOG
HYANNIS        CLOUDY    67  67 100 VRB5      30.28S
CHATHAM        CLOUDY    66  66 100 E7        30.29F
PROVINCETOWN   CLOUDY    65  64  97 E9        30.31S
NANTUCKET      CLOUDY    69  67  93 E9        30.27F
MARTHAS VNYRD  CLOUDY    68  68 100 E9        30.27F FOG
$$

MAZALL-170800-
CENTRAL AND WESTERN MASSACHUSETTS

CITY           SKY/WX    TMP DP  RH WIND       PRES   REMARKS
WORCESTER      MOCLDY    60  58  92 NE6       30.32F
FITCHBURG      PTCLDY    61  58  90 N5        30.31F
ORANGE         MOCLDY    61  59  93 N6        30.31F
SPRINGFIELD    MOCLDY    64  60  86 E3        30.28F
WESTFIELD      CLOUDY    66  64  93 N3        30.29F
NORTH ADAMS    CLOUDY    66  61  84 E8        30.28F
PITTSFIELD     CLOUDY    63  61  93 NE5       30.28F
$$

RIZALL-170800-
RHODE ISLAND

CITY           SKY/WX    TMP DP  RH WIND       PRES   REMARKS
PROVIDENCE     CLOUDY    66  63  90 NE9       30.29F
NEWPORT        CLOUDY    66  63  90 NE9       30.28S
BLOCK ISLAND   CLOUDY    66  65  96 NE15      30.27F
SMITHFIELD     CLOUDY    63  62  97 NE6       30.31F
WESTERLY       CLOUDY    64  64 100 NE6       30.26F
$$

CTZALL-170800-
CONNECTICUT

CITY           SKY/WX    TMP DP  RH WIND       PRES   REMARKS
BRADLEY INTL   CLOUDY    65  62  90 NE6       30.29F
HARTFORD       CLOUDY    68  61  78 NE7       30.28S
BRIDGEPORT     CLOUDY    69  65  86 NE10      30.25S
DANBURY        CLOUDY    69  65  86 NE9       30.26F FOG
GROTON         CLOUDY    67  63  87 NE9       30.25F
NEW HAVEN      CLOUDY    70  65  84 NE8       30.25F
CHESTER        CLOUDY    66  64  94 CALM      30.27S
MERIDEN        CLOUDY    67  62  84 VRB5      30.27S
WILLIMANTIC    CLOUDY    64  61  90 N6        30.29S
OXFORD         CLOUDY    64  63  96 NE12G18   30.28F
$$

MEZ002-015-021-024-NHZ003-005-008-011-012-014-VTZ005-008-170800-
NORTHERN NEW ENGLAND

CITY           SKY/WX    TMP DP  RH WIND       PRES   REMARKS
PORTLAND ME    CLEAR     54  54 100 CALM      30.34S
BANGOR ME      CLEAR     50  49  96 CALM      30.36F
CONCORD NH     PTCLDY    55  54  96 CALM      30.33F
MANCHESTER NH  PTCLDY    61  57  87 N5        30.29F
NASHUA NH      CLEAR     59  59 100 NW3       30.32F
PORTSMOUTH NH  NOT AVBL
JAFFREY NH     CLEAR     57  57 100 CALM      30.33S
KEENE NH       PTCLDY    57  56  96 CALM      30.32S
BURLINGTON VT  PTCLDY    62  58  86 SE6       30.27S
MT. WASHINGTON PTCLDY    47  46  95 W29         N/A
$$

NYZ052-076-170800-
EASTERN NEW YORK

CITY           SKY/WX    TMP DP  RH WIND       PRES   REMARKS
ALBANY         CLOUDY    63  63 100 CALM      30.25F
NEW YORK CITY  CLOUDY    73  67  81 E13       30.21F
$$

ANZALL-170800-
MARINE OBSERVATIONS

STATION/POSITION TIME  TEMP    WIND        PRES    VSBY  WAVE
                       AIR SEA DIR/SP/G                  HT/PER
                 (UTC) (F)     (DEG/KT/KT) (MB)    (MI)  (FT/S)
BOSTON BUOY      0640      67   80/ 10/ 12 1027.0R
BUZZARDS BAY     0600           50/ 19/ 20 1026.0F
NANTUCKET SOUND  0640   67 72   80/ 12/ 16 1025.1F
MASS BAY-STELLWA 0604   65      80/  8/ 10 1026.2S  1 7/8  2/ 4
ISLE OF SHOALS   0600   62      10/  9/ 10 1026.2F
S OF BLOCK IS    0626      68                N/A           4/ 6
$$

......................KEY.........................
  SKY/WX - SKY CONDITION/PRESENT WEATHER
  TMP    - TEMPERATURE IN FAHRENHEIT
  DWPT   - DEWPOINT IN FAHRENHEIT
  RH     - RELATIVE HUMIDITY IN PERCENT
  WIND   - DIRECTION AND SPEED IN MPH
  PRES   - MEAN SEA LEVEL PRESSURE IN INCHES OF HG
  WCI    - WIND CHILL INDEX
  VSB    - VISIBILITY IN MILES
  HX     - HEAT INDEX
  TC     - TEMPERATURE IN CELSIUS
  VRB    - VARIABLE WIND DIRECTION
  N/A    - NOT AVAILABLE


 

View Past Reports for Boston, MA.

Products Courtesy of NOAA-NWS
NWS Information Parsing Script by Ken True at Saratoga Weather - Script by SE Lincoln Weather.

 



home

Copyright © Sandy Bay Yacht Club. All rights reserved.